Regional Weather Roundup
Issued by NWS

Home | Current Version | Previous Version | Text Only | Print | Product List | Glossary Off
Versions: 1 2 3 4 5 6 7 8 9 10 11 12 13 14 15 16 17 18 19 20 21 22 23 24 25 26 27 28 29 30 31 32 33 34 35 36 37 38 39 40 41 42 43 44 45 46 47 48 49 50

134
ASUS44 KJAN 210903
RWRMS

MISSISSIPPI HOURLY WEATHER ROUNDUP
NATIONAL WEATHER SERVICE JACKSON MS
400 AM CDT TUE OCT 21 2014

NOTE: "FAIR: INDICATES FEW OR NO CLOUDS BELOW 12,000 FEET WITH NO
SIGNIFICANT WEATHER AND/OR OBSTRUCTIONS TO VISIBILITY.

MSZ001>002-007>008-010>013-018>021-025>028-034>036-211000-
NORTHWEST MISSISSIPPI

CITY           SKY/WX    TMP DP  RH WIND       PRES   REMARKS
CLARKSDALE     FAIR      54  54 100 CALM      30.04S
CLEVELAND      FAIR      55  54  99 CALM      30.03F
GREENWOOD      CLEAR     50  48  93 CALM      30.04S
GREENVILLE     CLOUDY    56  53  90 CALM      30.03F
GRENADA          N/A    N/A N/A N/A MISG        N/A
OLIVE BRANCH   CLEAR     54  54 100 CALM      30.03S
OXFORD         FAIR      46  46 100 CALM      30.05S
TUNICA         FOG       50  50 100 CALM      30.03F VSB 1/4
$$

MSZ003>006-009-014>017-022>024-029>033-037>039-211000-
NORTHEAST MISSISSIPPI

CITY           SKY/WX    TMP DP  RH WIND       PRES   REMARKS
COLUMBUS AFB   CLEAR     47  47 100 CALM      30.03S
CORINTH        FAIR      48  46  93 CALM      30.02S
GOLDN TRIANGLE CLEAR     48  45  87 CALM      30.03S
STARKVILLE     FAIR      46  46 100 CALM      30.04S
TUPELO         CLEAR     51  48  89 CALM      30.03S
$$

MSZ040-058-211000-
CENTRAL MISSISSIPPI

CITY           SKY/WX    TMP DP  RH WIND       PRES   REMARKS
JACKSON INTL   CLEAR     50  48  93 S3        30.03S
JACKSON HAWKNS CLEAR     51  48  89 S3        30.03S
MERIDIAN KEY   CLEAR     48  46  93 CALM      30.03S
MERIDIAN NAS   CLEAR     49  47  93 CALM      30.03S
RAYMOND        FAIR      48  45  87 MISG      30.03S HAZE
VICKSBURG      PTCLDY    49  48  97 CALM      30.04R
$$

MSZ059>079-211000-
SOUTH MISSISSIPPI

CITY           SKY/WX    TMP DP  RH WIND       PRES   REMARKS
BROOKHAVEN     FAIR      50  48  93 CALM      30.04S
COLUMBIA         N/A    N/A N/A N/A MISG        N/A
HATTIESBURG    CLEAR     51  49  92 CALM      30.03S
MCCOMB         CLEAR     59  48  67 CALM      30.02S
NATCHEZ        CLEAR     52  48  87 CALM      30.03S
PINE BELT      CLEAR     54  46  76 N3        30.03S
$$

MSZ080>082-211000-
COASTAL MISSISSIPPI

CITY           SKY/WX    TMP DP  RH WIND       PRES   REMARKS
BILOXI         CLEAR     56  52  85 NE5       30.00S
PASCAGOULA     CLEAR     48  47  96 CALM      30.00F
GULFPORT       CLEAR     54  51  90 CALM      30.00S
$$



USA.gov is the U.S. government's official web portal to all federal, state and local government web resources and services.